Location: São Paulo
(23.5507°S, 46.6334°W)
Time: 17:11:57
(UTC-03:00)

Tiros 1 - Pass Details

Date: 13 February 2026
Orbit: 618 x 649 km, 48.4° (Epoch: 6 March)

Event Time Altitude Azimuth Distance (km) Brightness Sun altitude
Rises 04:50:56 0° 213° (SSW) 2,980 10.4 -14.4°
Reaches altitude 10° 04:53:34 10° 201° (SSW) 2,063 9.7 -13.8°
Maximum altitude 04:57:42 29° 141° (SE) 1,196 9.2 -13.0°
Drops below altitude 10° 05:01:47 10° 81° (E) 2,037 10.7 -12.1°
Sets 05:04:21 0° 69° (ENE) 2,935 11.4 -11.5°
